CW5973 Weather Reports


Display with metric or nautical units.
time (UTC)temp
F
wind
direction
speed
MPH
gust
MPH
rain 1hr
in
rain 24hr
in
rain mn
in
humidity
%
barometer
mb
20200401093424 42 107 0.0 0.0 0.00 0.37 0.00 92 1007.7
20200401090438 42 107 0.0 0.0 0.00 0.37 0.00 92 1007.3
20200401084923 42 107 0.0 0.0 0.00 0.37 0.00 92 1007.4
20200401083433 42 107 0.0 0.0 0.00 0.37 0.00 92 1007.2
20200401081922 42 107 0.0 0.0 0.00 0.37 0.00 92 1007.2
20200401080431 42 107 0.0 0.0 0.00 0.37 0.00 92 1007.2
20200401074936 42 107 0.0 0.0 0.00 0.37 0.00 91 1007.2
20200401073423 42 107 0.0 0.0 0.00 0.37 0.00 91 1007.2
20200401071932 42 107 0.0 0.0 0.00 0.37 0.00 92 1007.3
20200401064925 42 107 0.0 0.0 0.00 0.37 0.00 91 1007.4
20200401063435 42 107 0.0 0.0 0.00 0.37 0.00 91 1007.6
20200401061923 42 107 0.0 0.0 0.00 0.37 0.00 91 1007.7
20200401060432 42 107 0.0 0.0 0.00 0.37 0.00 91 1007.7
20200401054937 42 107 0.0 0.0 0.00 0.37 0.00 91 1007.6
20200401053427 42 107 0.0 0.0 0.00 0.37 0.00 91 1007.5
20200401051935 42 107 0.0 0.0 0.00 0.37 0.00 91 1007.5
20200401050425 42 107 0.0 0.0 0.00 0.37 0.00 91 1007.7
20200401044931 42 107 0.0 0.0 0.01 0.37 0.00 91 1007.6
20200401043424 42 107 0.0 0.0 0.01 0.37 0.00 91 1007.5
20200401041936 42 107 0.0 0.0 0.01 0.37 0.37 90 1007.5
20200401040424 42 107 0.0 0.0 0.01 0.37 0.37 90 1007.5
20200401034936 42 107 0.0 0.0 0.00 0.36 0.36 90 1007.7
20200401033425 42 107 0.0 0.0 0.00 0.36 0.36 90 1007.8
20200401031930 42 107 0.0 0.0 0.00 0.36 0.36 90 1007.9
20200401030420 42 107 0.0 0.0 0.01 0.36 0.36 90 1007.9
20200401024927 42 107 0.0 0.0 0.01 0.36 0.36 90 1007.8
20200401023418 42 107 0.0 0.0 0.01 0.36 0.36 90 1007.9
20200401021930 42 107 0.0 0.0 0.02 0.36 0.36 89 1008.0
20200401020423 42 107 0.0 0.0 0.01 0.35 0.35 89 1008.0
20200401014931 42 107 0.0 0.0 0.02 0.35 0.35 89 1008.1
20200401013423 42 107 0.0 0.0 0.03 0.35 0.35 88 1008.0
20200401011938 42 107 0.0 0.0 0.03 0.34 0.34 88 1007.8
20200401010427 42 107 0.0 0.0 0.04 0.34 0.34 87 1007.8
20200401004935 42 107 0.0 1.0 0.04 0.33 0.33 87 1007.7
20200401003422 42 107 0.0 0.0 0.04 0.32 0.32 87 1007.5
20200401001935 42 107 0.0 0.0 0.03 0.31 0.31 87 1007.4
20200401000424 42 107 0.0 0.0 0.03 0.30 0.30 86 1007.6
20200331234934 43 107 0.0 0.0 0.03 0.29 0.29 86 1007.5
20200331233430 43 107 0.0 0.0 0.04 0.28 0.28 85 1007.3
20200331231938 43 109 0.0 5.0 0.05 0.28 0.28 85 1007.2
20200331230430 43 36 0.0 3.0 0.06 0.27 0.27 85 1007.2
20200331224934 43 123 0.0 5.0 0.07 0.26 0.26 86 1007.2
20200331223426 43 32 1.0 4.0 0.07 0.24 0.24 86 1007.2
20200331221931 44 309 0.0 3.0 0.07 0.23 0.23 86 1007.1
20200331220437 45 309 0.0 0.0 0.07 0.21 0.21 86 1007.2
20200331214926 45 309 0.0 0.0 0.06 0.19 0.19 86 1007.2
20200331213433 45 309 0.0 1.0 0.06 0.17 0.17 85 1007.2
20200331211922 45 309 0.0 1.0 0.08 0.16 0.16 85 1007.0
20200331210431 46 309 0.0 0.0 0.08 0.14 0.14 85 1006.7
20200331204938 46 309 0.0 0.0 0.08 0.13 0.13 84 1006.7
20200331203429 46 216 0.0 2.0 0.06 0.11 0.11 84 1006.7
20200331201935 47 216 0.0 0.0 0.04 0.08 0.08 83 1006.8
20200331200425 47 216 0.0 0.0 0.03 0.06 0.06 82 1006.7
20200331194929 47 216 0.0 0.0 0.04 0.06 0.06 81 1006.7
20200331193438 48 216 0.0 1.0 0.05 0.05 0.05 80 1006.9
20200331191928 48 216 0.0 0.0 0.04 0.04 0.04 77 1007.1
20200331190434 49 216 0.0 0.0 0.03 0.03 0.03 76 1007.2
20200331184924 49 216 0.0 0.0 0.02 0.02 0.02 73 1007.5
20200331183433 49 216 0.0 0.0 0.00 0.00 0.00 71 1007.5
20200331181941 49 196 0.0 0.0 0.00 0.00 0.00 68 1007.4
20200331180428 50 196 0.0 0.0 0.00 0.00 0.00 67 1008.0
20200331174934 50 196 0.0 3.0 0.00 0.00 0.00 66 1008.3
20200331173428 50 86 0.0 2.0 0.00 0.00 0.00 63 1008.1
20200331171936 49 86 0.0 4.0 0.00 0.00 0.00 62 1008.3
20200331170426 49 39 0.0 2.0 0.00 0.00 0.00 62 1008.8
20200331164933 49 39 0.0 1.0 0.00 0.00 0.00 62 1009.3
20200331163424 49 39 1.0 3.0 0.00 0.00 0.00 63 1009.5
20200331161929 48 39 0.0 0.0 0.00 0.00 0.00 66 1009.8
20200331160434 48 39 0.0 0.0 0.00 0.00 0.00 65 1009.9
20200331154925 47 39 0.0 1.0 0.00 0.00 0.00 65 1009.9
20200331153434 47 39 0.0 1.0 0.00 0.00 0.00 66 1009.9
20200331151923 47 39 0.0 1.0 0.00 0.00 0.00 67 1010.3
20200331150432 47 39 0.0 1.0 0.00 0.00 0.00 68 1010.6
20200331144937 46 39 0.0 3.0 0.00 0.00 0.00 68 1010.6
20200331143426 46 39 0.0 1.0 0.00 0.00 0.00 69 1011.2
20200331141932 46 39 0.0 1.0 0.00 0.00 0.00 71 1011.4
20200331140422 46 39 0.0 0.0 0.00 0.00 0.00 73 1011.0
20200331134927 45 39 0.0 0.0 0.00 0.00 0.00 75 1011.4
20200331133434 45 39 0.0 0.0 0.00 0.00 0.00 76 1011.4
20200331131927 45 39 0.0 0.0 0.00 0.00 0.00 78 1011.8
20200331130432 45 39 0.0 0.0 0.00 0.00 0.00 80 1011.7
20200331124941 44 39 0.0 0.0 0.00 0.00 0.00 81 1012.0
20200331123428 44 39 0.0 0.0 0.00 0.00 0.00 81 1012.3
20200331121940 43 39 0.0 0.0 0.00 0.00 0.00 80 1012.5
20200331120429 43 39 0.0 0.0 0.00 0.00 0.00 80 1012.5
20200331114933 43 39 0.0 0.0 0.00 0.00 0.00 80 1012.8
20200331113430 43 39 0.0 0.0 0.00 0.00 0.00 80 1013.0
20200331111938 43 39 0.0 0.0 0.00 0.00 0.00 81 1013.5
20200331110430 43 39 0.0 0.0 0.00 0.00 0.00 81 1013.4
20200331104938 43 39 0.0 0.0 0.00 0.00 0.00 80 1013.6
20200331103433 43 39 0.0 0.0 0.00 0.00 0.00 80 1013.3
20200331101941 43 39 0.0 0.0 0.00 0.00 0.00 80 1013.5
20200331100427 43 39 0.0 0.0 0.00 0.00 0.00 80 1013.7
20200331094937 43 39 0.0 0.0 0.00 0.00 0.00 79 1013.3